Precipitable_Water
0.35 0.25 0.21 0.18 0.16 0.18 0.20 0.21 0.19 0.21 0.20 0.20 0.18 0.21 0.24 0.27 0.34 0.43 0.47 0.59 0.72 0.69 0.68 0.72 0.74 0.76 0.80 0.86 0.94 1.03 1.11 1.13 1.19 1.22 1.24 1.26 1.28 1.30 1.29 1.28 1.30 1.30 1.28 1.39 1.41 1.40 1.41 1.40 1.40 1.40 1.42 1.41 1.42 1.40 1.36 1.33 1.30 1.27 1.18 1.08 1.00 1.02 1.00 0.97 0.97 0.98 0.96 0.93 0.93 0.95 0.95 0.93 1.00 1.06 1.12 1.17 1.27 1.37 1.46 1.55 1.61 1.64 1.65 1.66 1.67 1.69
0.33 0.24 0.22 0.23 0.23 0.23 0.23 0.23 0.23 0.19 0.20 0.23 0.21 0.19 0.23 0.27 0.26 0.38 0.44 0.54 0.64 0.61 0.59 0.68 0.69 0.70 0.74 0.83 0.89 1.01 1.04 1.00 1.08 1.15 1.20 1.21 1.24 1.26 1.26 1.27 1.28 1.34 1.45 1.45 1.40 1.39 1.41 1.41 1.39 1.38 1.38 1.39 1.34 1.36 1.37 1.31 1.30 1.30 1.27 1.16 1.07 1.06 1.02 0.96 0.93 0.94 0.95 0.95 0.91 0.88 0.88 0.92 0.97 1.01 1.05 1.09 1.20 1.31 1.43 1.52 1.58 1.61 1.63 1.65 1.65 1.67
0.24 0.22 0.25 0.28 0.27 0.25 0.23 0.23 0.23 0.20 0.16 0.21 0.22 0.22 0.21 0.25 0.29 0.37 0.42 0.50 0.55 0.56 0.53 0.62 0.60 0.64 0.71 0.77 0.87 0.94 0.96 0.99 1.06 1.12 1.15 1.17 1.19 1.22 1.26 1.28 1.32 1.36 1.34 1.35 1.33 1.33 1.33 1.37 1.38 1.35 1.34 1.36 1.39 1.40 1.37 1.36 1.33 1.32 1.30 1.26 1.19 1.10 1.03 0.99 0.97 0.95 0.91 0.95 0.97 0.92 0.91 0.91 0.94 1.03 1.09 1.15 1.21 1.30 1.38 1.47 1.55 1.59 1.61 1.62 1.62 1.65
0.19 0.22 0.28 0.32 0.30 0.26 0.23 0.23 0.23 0.21 0.20 0.16 0.20 0.21 0.19 0.26 0.23 0.21 0.35 0.45 0.51 0.51 0.49 0.55 0.55 0.58 0.66 0.72 0.77 0.88 0.95 0.99 1.06 1.13 1.17 1.20 1.16 1.18 1.21 1.26 1.29 1.29 1.31 1.29 1.27 1.26 1.30 1.32 1.34 1.34 1.31 1.32 1.38 1.41 1.39 1.38 1.34 1.34 1.32 1.31 1.27 1.18 1.10 1.04 1.02 0.97 0.95 0.96 0.98 0.99 0.98 0.97 0.95 0.95 1.03 1.13 1.21 1.23 1.30 1.37 1.49 1.55 1.58 1.59 1.59 1.61
0.22 0.27 0.31 0.32 0.32 0.28 0.24 0.23 0.21 0.19 0.16 0.17 0.17 0.21 0.22 0.24 0.25 0.24 0.31 0.38 0.45 0.48 0.52 0.52 0.50 0.51 0.58 0.58 0.64 0.80 0.94 0.97 1.03 1.12 1.19 1.25 1.26 1.25 1.30 1.35 1.37 1.33 1.32 1.32 1.31 1.27 1.25 1.25 1.27 1.28 1.31 1.34 1.32 1.35 1.36 1.38 1.38 1.35 1.33 1.33 1.32 1.27 1.19 1.12 1.07 1.04 1.03 1.01 0.98 0.99 1.01 1.03 0.99 1.02 0.98 0.99 1.05 1.15 1.23 1.31 1.39 1.45 1.53 1.55 1.55 1.57
0.26 0.30 0.36 0.31 0.31 0.31 0.27 0.23 0.21 0.20 0.16 0.16 0.16 0.17 0.23 0.27 0.28 0.29 0.31 0.33 0.35 0.36 0.42 0.46 0.38 0.39 0.51 0.56 0.56 0.67 0.82 0.87 0.98 1.02 1.06 1.15 1.21 1.28 1.25 1.25 1.34 1.39 1.41 1.38 1.34 1.27 1.23 1.25 1.30 1.34 1.33 1.28 1.27 1.31 1.37 1.41 1.43 1.41 1.38 1.37 1.36 1.35 1.30 1.22 1.17 1.14 1.10 1.02 0.95 0.93 0.88 0.85 0.85 0.84 0.86 0.83 0.87 1.01 1.10 1.18 1.37 1.44 1.47 1.50 1.52 1.54
0.31 0.33 0.31 0.30 0.31 0.31 0.30 0.25 0.24 0.23 0.17 0.16 0.14 0.16 0.21 0.28 0.31 0.31 0.30 0.30 0.27 0.27 0.37 0.45 0.35 0.29 0.45 0.49 0.53 0.61 0.67 0.72 0.87 0.94 0.99 1.09 1.17 1.22 1.22 1.25 1.28 1.32 1.36 1.42 1.43 1.42 1.33 1.27 1.26 1.27 1.26 1.25 1.23 1.28 1.41 1.45 1.44 1.45 1.43 1.41 1.40 1.36 1.34 1.33 1.27 1.24 1.17 1.09 1.04 0.96 0.89 0.87 0.86 0.83 0.87 0.93 0.96 1.02 1.16 1.27 1.34 1.39 1.44 1.47 1.47 1.49
0.36 0.33 0.32 0.31 0.31 0.30 0.29 0.26 0.28 0.25 0.19 0.15 0.21 0.22 0.18 0.23 0.27 0.29 0.31 0.31 0.29 0.36 0.38 0.40 0.40 0.31 0.31 0.40 0.50 0.57 0.59 0.63 0.73 0.83 0.93 1.03 1.11 1.15 1.18 1.22 1.24 1.30 1.34 1.35 1.38 1.40 1.37 1.30 1.23 1.18 1.21 1.23 1.22 1.33 1.40 1.42 1.44 1.43 1.44 1.44 1.41 1.42 1.40 1.38 1.36 1.31 1.25 1.13 1.07 1.01 0.97 0.97 0.95 0.90 0.90 0.97 0.99 1.07 1.17 1.24 1.31 1.37 1.40 1.43 1.46 1.45
0.36 0.31 0.32 0.29 0.30 0.28 0.27 0.29 0.31 0.29 0.21 0.20 0.28 0.28 0.21 0.21 0.24 0.30 0.32 0.31 0.31 0.29 0.25 0.34 0.39 0.30 0.26 0.34 0.47 0.52 0.50 0.57 0.64 0.73 0.84 0.96 1.06 1.11 1.14 1.17 1.21 1.27 1.32 1.35 1.35 1.37 1.38 1.33 1.27 1.26 1.25 1.29 1.34 1.34 1.33 1.36 1.40 1.45 1.49 1.49 1.48 1.43 1.42 1.43 1.41 1.36 1.32 1.25 1.16 1.09 1.05 1.01 1.02 1.02 1.03 1.07 1.08 1.06 1.13 1.18 1.30 1.34 1.37 1.40 1.43 1.45
0.36 0.37 0.37 0.35 0.31 0.26 0.30 0.34 0.33 0.30 0.23 0.24 0.33 0.30 0.29 0.29 0.29 0.28 0.28 0.29 0.30 0.26 0.19 0.27 0.35 0.27 0.23 0.32 0.34 0.46 0.46 0.47 0.57 0.70 0.80 0.91 1.00 1.06 1.09 1.13 1.18 1.25 1.31 1.36 1.37 1.39 1.42 1.43 1.38 1.33 1.35 1.37 1.31 1.33 1.37 1.41 1.45 1.46 1.47 1.46 1.45 1.42 1.42 1.44 1.43 1.40 1.36 1.33 1.28 1.20 1.15 1.08 1.05 1.07 1.10 1.11 1.08 1.07 1.12 1.12 1.21 1.30 1.33 1.35 1.38 1.42
0.34 0.40 0.43 0.39 0.32 0.31 0.32 0.34 0.37 0.33 0.29 0.33 0.28 0.32 0.32 0.31 0.28 0.30 0.29 0.28 0.27 0.21 0.21 0.26 0.32 0.31 0.20 0.25 0.30 0.34 0.36 0.46 0.55 0.64 0.78 0.92 1.00 1.06 1.09 1.10 1.14 1.20 1.24 1.28 1.33 1.39 1.41 1.47 1.49 1.46 1.34 1.31 1.35 1.35 1.34 1.35 1.38 1.41 1.42 1.43 1.41 1.42 1.45 1.44 1.42 1.41 1.37 1.37 1.34 1.27 1.23 1.18 1.11 1.11 1.11 1.08 1.07 1.08 1.09 1.08 1.14 1.21 1.27 1.32 1.34 1.38
0.31 0.35 0.35 0.40 0.44 0.41 0.35 0.32 0.39 0.38 0.36 0.32 0.28 0.25 0.32 0.31 0.35 0.31 0.27 0.28 0.20 0.15 0.22 0.26 0.28 0.29 0.20 0.19 0.30 0.37 0.44 0.47 0.52 0.55 0.65 0.79 0.92 1.01 1.07 1.11 1.16 1.20 1.22 1.26 1.31 1.35 1.41 1.44 1.47 1.48 1.37 1.32 1.33 1.32 1.28 1.29 1.33 1.36 1.38 1.39 1.38 1.41 1.42 1.43 1.42 1.42 1.41 1.41 1.40 1.37 1.33 1.25 1.21 1.18 1.14 1.09 1.05 1.06 1.04 1.06 1.10 1.20 1.25 1.27 1.32 1.34
0.26 0.27 0.35 0.39 0.47 0.43 0.36 0.30 0.35 0.39 0.38 0.34 0.30 0.30 0.22 0.24 0.26 0.21 0.25 0.18 0.18 0.16 0.23 0.25 0.24 0.23 0.22 0.25 0.32 0.34 0.40 0.45 0.50 0.56 0.63 0.71 0.81 0.92 1.01 1.07 1.12 1.17 1.20 1.22 1.25 1.32 1.36 1.35 1.37 1.37 1.37 1.34 1.29 1.27 1.26 1.23 1.26 1.30 1.33 1.35 1.33 1.33 1.39 1.41 1.41 1.38 1.39 1.40 1.38 1.37 1.34 1.29 1.28 1.24 1.21 1.17 1.15 1.15 1.10 1.11 1.11 1.14 1.16 1.23 1.23 1.26
0.23 0.30 0.31 0.37 0.43 0.46 0.42 0.29 0.29 0.31 0.37 0.34 0.29 0.28 0.23 0.21 0.19 0.16 0.18 0.19 0.20 0.24 0.27 0.23 0.25 0.18 0.23 0.28 0.32 0.31 0.37 0.42 0.49 0.55 0.62 0.69 0.75 0.84 0.94 1.03 1.09 1.14 1.17 1.19 1.23 1.27 1.29 1.31 1.33 1.35 1.37 1.36 1.32 1.30 1.30 1.26 1.24 1.25 1.27 1.30 1.30 1.31 1.38 1.41 1.40 1.38 1.36 1.37 1.38 1.39 1.36 1.34 1.32 1.26 1.25 1.24 1.22 1.22 1.20 1.19 1.14 1.12 1.15 1.18 1.18 1.24
0.16 0.19 0.26 0.31 0.32 0.45 0.42 0.38 0.35 0.32 0.36 0.37 0.37 0.32 0.27 0.23 0.19 0.14 0.17 0.13 0.14 0.18 0.23 0.25 0.18 0.15 0.15 0.17 0.29 0.29 0.32 0.39 0.46 0.51 0.58 0.65 0.71 0.78 0.87 0.96 1.02 1.06 1.11 1.16 1.20 1.24 1.25 1.29 1.31 1.33 1.35 1.37 1.37 1.33 1.31 1.30 1.27 1.24 1.22 1.25 1.26 1.29 1.35 1.38 1.38 1.38 1.34 1.35 1.38 1.39 1.40 1.39 1.37 1.32 1.30 1.29 1.28 1.27 1.23 1.22 1.18 1.17 1.19 1.18 1.22 1.25
0.20 0.21 0.30 0.35 0.37 0.43 0.40 0.45 0.45 0.39 0.37 0.39 0.41 0.40 0.32 0.25 0.30 0.18 0.22 0.18 0.18 0.18 0.16 0.19 0.16 0.28 0.21 0.30 0.29 0.30 0.30 0.31 0.36 0.44 0.51 0.56 0.65 0.75 0.81 0.88 0.95 1.00 1.04 1.11 1.15 1.20 1.24 1.27 1.30 1.33 1.36 1.38 1.39 1.40 1.37 1.31 1.29 1.25 1.21 1.22 1.24 1.26 1.31 1.36 1.37 1.37 1.35 1.34 1.37 1.39 1.38 1.38 1.38 1.36 1.35 1.33 1.33 1.32 1.31 1.28 1.23 1.20 1.20 1.21 1.26 1.31
0.22 0.18 0.30 0.35 0.38 0.40 0.42 0.46 0.45 0.45 0.28 0.37 0.40 0.33 0.32 0.41 0.37 0.24 0.25 0.27 0.26 0.22 0.15 0.26 0.17 0.19 0.24 0.22 0.25 0.26 0.27 0.26 0.30 0.34 0.41 0.47 0.57 0.68 0.72 0.79 0.86 0.91 0.95 1.03 1.09 1.15 1.21 1.26 1.29 1.31 1.33 1.35 1.38 1.40 1.38 1.35 1.30 1.25 1.26 1.25 1.24 1.27 1.32 1.34 1.36 1.37 1.38 1.37 1.35 1.36 1.38 1.38 1.37 1.36 1.31 1.28 1.27 1.28 1.32 1.31 1.29 1.26 1.25 1.28 1.29 1.30
0.21 0.21 0.29 0.32 0.31 0.41 0.47 0.48 0.48 0.46 0.44 0.43 0.35 0.36 0.46 0.49 0.43 0.32 0.20 0.23 0.19 0.15 0.21 0.24 0.15 0.15 0.16 0.10 0.18 0.22 0.23 0.23 0.25 0.29 0.34 0.41 0.53 0.60 0.65 0.72 0.78 0.81 0.86 0.94 1.02 1.11 1.18 1.22 1.23 1.27 1.31 1.32 1.33 1.34 1.38 1.41 1.42 1.38 1.32 1.29 1.27 1.28 1.25 1.29 1.34 1.36 1.37 1.36 1.33 1.33 1.34 1.36 1.36 1.34 1.32 1.32 1.30 1.32 1.31 1.31 1.32 1.32 1.30 1.27 1.29 1.31
0.28 0.19 0.25 0.32 0.35 0.39 0.45 0.46 0.44 0.48 0.49 0.41 0.39 0.49 0.38 0.31 0.30 0.34 0.29 0.18 0.15 0.14 0.17 0.21 0.19 0.17 0.17 0.15 0.17 0.18 0.19 0.20 0.23 0.27 0.31 0.40 0.51 0.55 0.62 0.68 0.72 0.76 0.81 0.90 0.98 1.08 1.15 1.20 1.23 1.26 1.28 1.31 1.34 1.39 1.42 1.46 1.49 1.47 1.41 1.36 1.33 1.28 1.27 1.29 1.32 1.36 1.39 1.40 1.37 1.35 1.33 1.33 1.34 1.34 1.34 1.35 1.36 1.35 1.30 1.28 1.29 1.27 1.27 1.29 1.33 1.32
0.31 0.21 0.23 0.33 0.34 0.40 0.41 0.41 0.32 0.38 0.48 0.49 0.50 0.48 0.49 0.41 0.34 0.29 0.28 0.24 0.26 0.19 0.18 0.17 0.18 0.13 0.18 0.18 0.19 0.18 0.19 0.19 0.21 0.25 0.31 0.40 0.50 0.55 0.60 0.64 0.68 0.71 0.76 0.84 0.93 1.04 1.11 1.17 1.21 1.23 1.25 1.28 1.32 1.36 1.41 1.45 1.48 1.46 1.45 1.42 1.38 1.37 1.39 1.37 1.33 1.34 1.32 1.36 1.37 1.35 1.36 1.35 1.36 1.36 1.34 1.35 1.34 1.30 1.27 1.27 1.26 1.26 1.25 1.26 1.30 1.29
0.28 0.34 0.21 0.30 0.38 0.38 0.32 0.37 0.33 0.37 0.38 0.41 0.41 0.43 0.45 0.41 0.45 0.41 0.38 0.27 0.21 0.17 0.18 0.17 0.14 0.14 0.19 0.22 0.21 0.20 0.20 0.19 0.19 0.22 0.31 0.41 0.49 0.55 0.59 0.62 0.65 0.67 0.72 0.81 0.89 1.00 1.09 1.14 1.19 1.23 1.27 1.31 1.35 1.41 1.45 1.46 1.44 1.45 1.48 1.44 1.42 1.37 1.34 1.32 1.32 1.32 1.31 1.34 1.35 1.35 1.31 1.31 1.33 1.34 1.36 1.36 1.35 1.30 1.28 1.28 1.28 1.27 1.27 1.29 1.26 1.27
0.29 0.30 0.24 0.27 0.29 0.29 0.33 0.41 0.41 0.41 0.44 0.44 0.43 0.42 0.44 0.40 0.35 0.30 0.25 0.36 0.30 0.24 0.19 0.19 0.14 0.18 0.23 0.24 0.23 0.21 0.23 0.23 0.22 0.23 0.30 0.39 0.47 0.53 0.58 0.61 0.63 0.65 0.71 0.79 0.88 0.96 1.05 1.12 1.17 1.21 1.26 1.33 1.35 1.36 1.37 1.41 1.45 1.46 1.43 1.41 1.41 1.41 1.39 1.35 1.33 1.31 1.30 1.32 1.33 1.31 1.31 1.32 1.34 1.35 1.36 1.33 1.32 1.28 1.28 1.28 1.27 1.28 1.29 1.25 1.26 1.27
0.39 0.37 0.30 0.24 0.28 0.29 0.34 0.42 0.47 0.46 0.46 0.47 0.48 0.44 0.47 0.47 0.45 0.36 0.25 0.28 0.30 0.30 0.30 0.27 0.21 0.19 0.30 0.28 0.29 0.27 0.27 0.24 0.24 0.25 0.29 0.39 0.47 0.51 0.55 0.59 0.62 0.63 0.67 0.75 0.85 0.94 1.02 1.08 1.14 1.19 1.22 1.25 1.27 1.29 1.32 1.37 1.40 1.40 1.40 1.41 1.40 1.37 1.35 1.36 1.34 1.34 1.33 1.31 1.30 1.30 1.32 1.33 1.32 1.33 1.31 1.29 1.28 1.25 1.25 1.26 1.27 1.30 1.26 1.24 1.25 1.28
0.45 0.34 0.27 0.27 0.32 0.34 0.38 0.42 0.45 0.47 0.46 0.43 0.46 0.49 0.47 0.44 0.45 0.40 0.37 0.38 0.30 0.29 0.28 0.26 0.21 0.20 0.30 0.31 0.29 0.30 0.32 0.31 0.30 0.31 0.31 0.35 0.42 0.47 0.51 0.56 0.60 0.63 0.68 0.74 0.83 0.91 0.99 1.06 1.14 1.20 1.21 1.22 1.25 1.28 1.32 1.34 1.37 1.39 1.41 1.40 1.39 1.35 1.36 1.38 1.38 1.37 1.33 1.30 1.29 1.31 1.32 1.30 1.31 1.30 1.28 1.25 1.24 1.22 1.23 1.25 1.26 1.29 1.25 1.24 1.26 1.23
0.31 0.35 0.30 0.24 0.24 0.26 0.30 0.37 0.40 0.45 0.46 0.41 0.42 0.46 0.49 0.49 0.49 0.47 0.43 0.42 0.32 0.32 0.29 0.27 0.19 0.23 0.30 0.34 0.31 0.28 0.29 0.30 0.29 0.30 0.32 0.35 0.41 0.47 0.51 0.56 0.59 0.61 0.66 0.72 0.79 0.85 0.94 1.04 1.09 1.13 1.16 1.19 1.23 1.27 1.31 1.33 1.35 1.36 1.36 1.39 1.36 1.35 1.39 1.39 1.40 1.35 1.32 1.29 1.27 1.29 1.30 1.28 1.29 1.27 1.25 1.23 1.22 1.20 1.21 1.22 1.23 1.25 1.22 1.23 1.21 1.20
0.38 0.36 0.33 0.22 0.19 0.18 0.18 0.23 0.27 0.32 0.37 0.40 0.43 0.44 0.47 0.48 0.47 0.44 0.39 0.39 0.31 0.32 0.33 0.28 0.27 0.32 0.32 0.33 0.31 0.27 0.27 0.29 0.30 0.30 0.32 0.34 0.38 0.41 0.45 0.50 0.55 0.61 0.64 0.70 0.75 0.81 0.87 0.95 1.02 1.07 1.12 1.17 1.21 1.25 1.29 1.32 1.33 1.34 1.35 1.36 1.38 1.38 1.39 1.38 1.38 1.34 1.30 1.28 1.26 1.27 1.26 1.27 1.27 1.24 1.22 1.21 1.21 1.20 1.21 1.21 1.20 1.19 1.19 1.20 1.16 1.17
0.38 0.40 0.37 0.33 0.28 0.26 0.31 0.33 0.40 0.42 0.39 0.35 0.37 0.41 0.43 0.48 0.49 0.48 0.46 0.39 0.32 0.33 0.30 0.32 0.34 0.30 0.28 0.29 0.28 0.28 0.28 0.27 0.30 0.32 0.30 0.32 0.35 0.37 0.40 0.43 0.47 0.53 0.62 0.69 0.73 0.77 0.84 0.91 0.96 1.01 1.08 1.13 1.16 1.22 1.26 1.29 1.31 1.33 1.35 1.36 1.40 1.41 1.39 1.38 1.36 1.33 1.29 1.27 1.25 1.25 1.25 1.25 1.25 1.24 1.21 1.21 1.21 1.23 1.23 1.21 1.20 1.18 1.15 1.17 1.15 1.13
0.36 0.31 0.34 0.35 0.34 0.35 0.37 0.38 0.41 0.42 0.37 0.38 0.37 0.38 0.43 0.45 0.47 0.47 0.42 0.38 0.44 0.34 0.26 0.35 0.35 0.27 0.30 0.31 0.32 0.31 0.33 0.33 0.34 0.36 0.36 0.36 0.38 0.40 0.41 0.42 0.45 0.50 0.53 0.61 0.71 0.77 0.80 0.85 0.91 0.97 1.04 1.09 1.13 1.19 1.23 1.27 1.30 1.31 1.33 1.33 1.37 1.41 1.41 1.40 1.35 1.31 1.27 1.25 1.24 1.22 1.22 1.25 1.27 1.26 1.24 1.24 1.25 1.24 1.23 1.22 1.21 1.19 1.19 1.19 1.14 1.11
0.32 0.28 0.32 0.33 0.32 0.36 0.40 0.39 0.41 0.41 0.40 0.39 0.39 0.39 0.39 0.43 0.46 0.45 0.46 0.48 0.46 0.36 0.30 0.38 0.35 0.29 0.32 0.35 0.39 0.41 0.45 0.45 0.45 0.48 0.48 0.49 0.49 0.50 0.48 0.45 0.44 0.41 0.47 0.51 0.56 0.64 0.70 0.75 0.83 0.93 1.02 1.08 1.13 1.16 1.19 1.23 1.28 1.34 1.38 1.40 1.41 1.43 1.40 1.40 1.34 1.28 1.25 1.25 1.22 1.19 1.21 1.25 1.29 1.30 1.29 1.28 1.26 1.24 1.23 1.22 1.21 1.21 1.20 1.17 1.13 1.13
0.32 0.27 0.32 0.34 0.32 0.34 0.37 0.38 0.41 0.41 0.41 0.40 0.39 0.40 0.43 0.44 0.47 0.52 0.52 0.54 0.50 0.45 0.44 0.39 0.35 0.36 0.41 0.47 0.53 0.57 0.63 0.61 0.60 0.63 0.62 0.57 0.54 0.54 0.52 0.47 0.43 0.41 0.40 0.44 0.50 0.56 0.62 0.68 0.75 0.84 0.97 1.07 1.11 1.13 1.16 1.20 1.25 1.28 1.30 1.33 1.37 1.38 1.41 1.40 1.32 1.25 1.23 1.21 1.21 1.23 1.25 1.25 1.26 1.27 1.28 1.27 1.25 1.24 1.25 1.24 1.22 1.21 1.18 1.16 1.14 1.14
0.29 0.24 0.34 0.35 0.30 0.29 0.35 0.39 0.39 0.40 0.40 0.37 0.39 0.42 0.46 0.52 0.56 0.58 0.56 0.58 0.57 0.51 0.47 0.42 0.38 0.37 0.52 0.64 0.65 0.71 0.74 0.74 0.72 0.66 0.63 0.64 0.64 0.62 0.59 0.54 0.49 0.43 0.39 0.40 0.46 0.48 0.55 0.64 0.73 0.81 0.94 1.04 1.10 1.11 1.13 1.16 1.20 1.25 1.29 1.34 1.36 1.36 1.38 1.36 1.29 1.25 1.21 1.17 1.20 1.24 1.26 1.25 1.24 1.25 1.24 1.25 1.26 1.27 1.27 1.24 1.24 1.21 1.18 1.16 1.15 1.13
0.32 0.27 0.35 0.35 0.28 0.26 0.35 0.37 0.36 0.39 0.41 0.39 0.38 0.44 0.51 0.51 0.50 0.55 0.53 0.62 0.57 0.50 0.49 0.44 0.37 0.36 0.59 0.68 0.71 0.75 0.74 0.72 0.66 0.67 0.67 0.67 0.70 0.68 0.63 0.59 0.56 0.51 0.44 0.42 0.44 0.48 0.51 0.60 0.72 0.80 0.90 1.00 1.07 1.11 1.14 1.17 1.21 1.26 1.28 1.33 1.34 1.37 1.38 1.34 1.28 1.24 1.23 1.24 1.26 1.26 1.24 1.24 1.25 1.25 1.23 1.25 1.24 1.25 1.27 1.27 1.25 1.20 1.18 1.16 1.14 1.14
0.30 0.27 0.27 0.31 0.26 0.25 0.35 0.39 0.36 0.36 0.38 0.35 0.35 0.41 0.51 0.52 0.57 0.62 0.63 0.64 0.62 0.63 0.49 0.40 0.37 0.60 0.62 0.71 0.65 0.69 0.73 0.74 0.73 0.73 0.72 0.75 0.76 0.74 0.68 0.64 0.62 0.59 0.53 0.47 0.42 0.47 0.51 0.57 0.68 0.75 0.83 0.93 1.02 1.09 1.13 1.17 1.20 1.22 1.27 1.31 1.35 1.40 1.35 1.29 1.26 1.25 1.27 1.31 1.31 1.29 1.29 1.30 1.28 1.25 1.25 1.24 1.24 1.26 1.27 1.25 1.22 1.19 1.17 1.14 1.16 1.17
0.32 0.29 0.27 0.35 0.27 0.27 0.35 0.38 0.38 0.34 0.27 0.31 0.47 0.55 0.56 0.50 0.53 0.52 0.54 0.60 0.65 0.65 0.59 0.61 0.59 0.66 0.71 0.69 0.66 0.67 0.69 0.74 0.78 0.83 0.89 0.83 0.77 0.74 0.74 0.72 0.70 0.67 0.60 0.51 0.44 0.43 0.49 0.59 0.66 0.74 0.80 0.86 0.95 1.05 1.13 1.19 1.19 1.23 1.33 1.38 1.40 1.36 1.33 1.30 1.28 1.27 1.29 1.32 1.32 1.33 1.34 1.34 1.31 1.27 1.26 1.26 1.26 1.25 1.22 1.20 1.17 1.17 1.20 1.20 1.20 1.16
0.29 0.30 0.29 0.36 0.30 0.28 0.36 0.37 0.32 0.25 0.27 0.52 0.57 0.63 0.63 0.62 0.60 0.59 0.62 0.65 0.68 0.69 0.67 0.64 0.66 0.67 0.73 0.71 0.71 0.76 0.82 0.89 0.94 0.90 0.89 0.94 0.92 0.87 0.81 0.78 0.75 0.73 0.69 0.59 0.54 0.53 0.54 0.55 0.65 0.75 0.84 0.91 1.01 1.14 1.19 1.24 1.30 1.35 1.38 1.41 1.38 1.38 1.35 1.32 1.30 1.30 1.31 1.31 1.33 1.34 1.34 1.33 1.31 1.28 1.29 1.28 1.26 1.22 1.19 1.16 1.17 1.18 1.19 1.19 1.17 1.15
0.29 0.28 0.31 0.33 0.34 0.36 0.34 0.33 0.25 0.24 0.46 0.54 0.61 0.64 0.69 0.67 0.67 0.63 0.60 0.65 0.69 0.69 0.68 0.63 0.67 0.70 0.70 0.71 0.75 0.86 0.89 0.94 0.98 0.99 0.96 0.97 0.97 0.92 0.87 0.85 0.86 0.86 0.78 0.74 0.68 0.63 0.58 0.54 0.64 0.75 0.81 0.93 1.02 1.08 1.12 1.18 1.27 1.30 1.34 1.40 1.38 1.38 1.36 1.34 1.31 1.30 1.32 1.31 1.32 1.30 1.30 1.27 1.26 1.26 1.27 1.26 1.25 1.21 1.17 1.16 1.15 1.14 1.18 1.19 1.19 1.21
0.33 0.33 0.33 0.29 0.38 0.28 0.31 0.31 0.30 0.43 0.45 0.50 0.53 0.59 0.62 0.57 0.60 0.56 0.48 0.59 0.68 0.72 0.71 0.67 0.70 0.72 0.72 0.74 0.78 0.84 0.93 0.94 0.88 0.92 1.01 0.95 0.95 0.99 1.00 0.99 1.01 0.98 0.90 0.82 0.79 0.71 0.68 0.68 0.75 0.86 0.96 1.00 1.03 1.05 1.11 1.22 1.29 1.31 1.35 1.36 1.38 1.39 1.37 1.35 1.30 1.28 1.29 1.28 1.29 1.30 1.31 1.29 1.25 1.23 1.21 1.21 1.20 1.17 1.16 1.15 1.16 1.17 1.22 1.17 1.17 1.17
0.37 0.30 0.35 0.32 0.33 0.38 0.31 0.28 0.29 0.31 0.30 0.40 0.53 0.65 0.71 0.71 0.71 0.70 0.62 0.59 0.72 0.74 0.77 0.73 0.71 0.73 0.74 0.75 0.78 0.85 0.94 0.82 0.68 0.76 0.91 0.93 0.95 0.94 1.03 1.09 1.10 1.05 0.95 0.85 0.85 0.79 0.75 0.78 0.87 0.93 0.92 0.98 1.02 1.08 1.19 1.28 1.31 1.32 1.31 1.33 1.36 1.36 1.35 1.31 1.26 1.28 1.28 1.28 1.30 1.32 1.33 1.33 1.32 1.28 1.26 1.24 1.17 1.16 1.17 1.19 1.21 1.19 1.22 1.16 1.14 1.13
0.40 0.41 0.42 0.36 0.34 0.36 0.33 0.28 0.27 0.27 0.35 0.50 0.52 0.62 0.69 0.74 0.75 0.75 0.60 0.50 0.71 0.75 0.77 0.77 0.74 0.76 0.75 0.73 0.76 0.82 0.78 0.63 0.64 0.76 0.88 0.91 0.93 0.98 1.00 1.09 1.11 1.07 1.00 0.91 0.86 0.79 0.77 0.81 0.85 0.90 0.96 1.00 1.01 1.12 1.25 1.31 1.33 1.32 1.29 1.30 1.31 1.30 1.28 1.26 1.26 1.28 1.27 1.30 1.35 1.37 1.38 1.38 1.37 1.34 1.32 1.30 1.30 1.31 1.29 1.28 1.27 1.29 1.31 1.27 1.24 1.22
0.37 0.38 0.39 0.35 0.34 0.35 0.33 0.29 0.28 0.36 0.35 0.51 0.59 0.63 0.69 0.76 0.78 0.67 0.40 0.43 0.71 0.75 0.77 0.78 0.75 0.76 0.76 0.76 0.77 0.75 0.70 0.60 0.66 0.78 0.92 0.95 0.99 1.04 1.09 1.11 1.12 1.06 0.99 0.99 0.95 0.95 0.91 0.92 0.92 0.93 0.94 0.96 1.02 1.18 1.29 1.34 1.33 1.29 1.28 1.29 1.29 1.26 1.24 1.25 1.27 1.31 1.35 1.39 1.42 1.44 1.44 1.44 1.42 1.41 1.39 1.38 1.41 1.43 1.44 1.48 1.49 1.47 1.47 1.46 1.45 1.41
0.34 0.37 0.39 0.32 0.35 0.35 0.34 0.33 0.37 0.42 0.54 0.60 0.61 0.68 0.74 0.81 0.72 0.45 0.35 0.51 0.75 0.75 0.78 0.79 0.78 0.78 0.78 0.76 0.77 0.71 0.78 0.82 0.87 0.94 0.99 1.02 1.05 1.11 1.20 1.25 1.24 1.19 1.08 1.03 1.00 1.03 0.99 0.97 0.93 0.90 0.92 1.01 1.13 1.25 1.34 1.36 1.31 1.28 1.29 1.30 1.27 1.22 1.22 1.28 1.34 1.36 1.38 1.40 1.43 1.45 1.46 1.48 1.49 1.47 1.50 1.53 1.53 1.58 1.61 1.64 1.63 1.65 1.64 1.63 1.64 1.62
0.36 0.38 0.39 0.40 0.35 0.33 0.34 0.33 0.34 0.43 0.54 0.63 0.68 0.71 0.79 0.68 0.44 0.40 0.56 0.75 0.77 0.72 0.78 0.80 0.80 0.82 0.81 0.79 0.79 0.82 0.87 0.94 0.97 1.00 1.01 1.03 1.07 1.15 1.22 1.27 1.30 1.26 1.24 1.22 1.14 1.07 1.07 1.06 1.04 1.02 1.05 1.12 1.21 1.31 1.35 1.35 1.30 1.29 1.28 1.26 1.21 1.23 1.31 1.36 1.38 1.40 1.43 1.42 1.42 1.44 1.47 1.49 1.52 1.54 1.56 1.61 1.65 1.65 1.67 1.73 1.76 1.75 1.75 1.74 1.72 1.70
0.38 0.35 0.34 0.35 0.40 0.41 0.39 0.36 0.35 0.30 0.51 0.66 0.69 0.67 0.73 0.54 0.51 0.63 0.70 0.75 0.80 0.75 0.76 0.78 0.82 0.84 0.85 0.80 0.84 0.89 0.94 0.95 0.97 0.99 1.03 1.05 1.08 1.14 1.20 1.27 1.27 1.24 1.21 1.20 1.17 1.19 1.15 1.11 1.10 1.10 1.11 1.20 1.29 1.34 1.35 1.34 1.29 1.28 1.27 1.22 1.25 1.36 1.41 1.40 1.41 1.42 1.43 1.43 1.43 1.45 1.49 1.52 1.53 1.55 1.60 1.63 1.67 1.69 1.69 1.75 1.75 1.76 1.77 1.74 1.72 1.71
0.49 0.37 0.36 0.39 0.45 0.34 0.35 0.33 0.35 0.48 0.59 0.67 0.66 0.52 0.62 0.67 0.72 0.72 0.73 0.70 0.80 0.79 0.75 0.76 0.81 0.86 0.88 0.86 0.85 0.90 0.93 0.94 0.95 0.99 1.03 1.07 1.12 1.17 1.22 1.32 1.35 1.33 1.32 1.32 1.30 1.26 1.24 1.19 1.18 1.19 1.27 1.33 1.36 1.38 1.38 1.34 1.28 1.27 1.25 1.26 1.41 1.45 1.44 1.43 1.45 1.46 1.46 1.47 1.47 1.49 1.51 1.54 1.58 1.61 1.64 1.66 1.69 1.70 1.70 1.71 1.73 1.75 1.76 1.75 1.73 1.71
0.49 0.43 0.46 0.38 0.48 0.42 0.39 0.45 0.56 0.61 0.64 0.69 0.69 0.70 0.73 0.73 0.75 0.77 0.76 0.76 0.77 0.79 0.80 0.78 0.80 0.86 0.90 0.90 0.88 0.91 0.91 0.93 0.94 0.98 1.00 1.04 1.09 1.14 1.18 1.29 1.36 1.36 1.36 1.35 1.35 1.36 1.33 1.27 1.25 1.29 1.34 1.41 1.43 1.44 1.42 1.41 1.33 1.30 1.28 1.39 1.48 1.46 1.45 1.45 1.47 1.47 1.48 1.50 1.54 1.55 1.57 1.61 1.62 1.64 1.68 1.70 1.71 1.69 1.70 1.72 1.75 1.72 1.78 1.77 1.74 1.72
0.56 0.56 0.58 0.52 0.47 0.56 0.61 0.60 0.61 0.63 0.64 0.66 0.75 0.79 0.75 0.76 0.78 0.78 0.77 0.76 0.80 0.82 0.82 0.78 0.83 0.86 0.89 0.93 0.90 0.89 0.90 0.93 0.95 0.96 1.00 1.06 1.08 1.15 1.22 1.31 1.39 1.44 1.46 1.48 1.45 1.45 1.42 1.40 1.38 1.39 1.38 1.43 1.48 1.46 1.47 1.46 1.44 1.35 1.38 1.49 1.52 1.54 1.52 1.51 1.50 1.50 1.52 1.55 1.56 1.57 1.61 1.61 1.64 1.66 1.68 1.71 1.73 1.73 1.75 1.73 1.74 1.73 1.76 1.76 1.75 1.75
0.54 0.56 0.52 0.45 0.50 0.46 0.40 0.58 0.57 0.60 0.65 0.68 0.73 0.77 0.79 0.79 0.79 0.79 0.77 0.81 0.83 0.85 0.84 0.81 0.86 0.87 0.89 0.92 0.92 0.90 0.89 0.93 0.93 0.93 0.97 1.02 1.05 1.10 1.17 1.26 1.37 1.42 1.44 1.47 1.54 1.57 1.52 1.49 1.45 1.45 1.44 1.42 1.49 1.50 1.51 1.50 1.50 1.50 1.53 1.55 1.59 1.60 1.60 1.58 1.56 1.55 1.55 1.53 1.56 1.60 1.63 1.59 1.58 1.59 1.63 1.66 1.70 1.72 1.73 1.74 1.74 1.73 1.72 1.72 1.70 1.72
0.45 0.59 0.49 0.48 0.48 0.44 0.45 0.55 0.60 0.64 0.69 0.71 0.72 0.70 0.70 0.76 0.78 0.79 0.81 0.86 0.88 0.90 0.88 0.83 0.85 0.88 0.91 0.90 0.92 0.91 0.90 0.93 0.91 0.92 0.96 0.99 1.03 1.06 1.13 1.21 1.32 1.41 1.49 1.53 1.58 1.61 1.60 1.57 1.54 1.55 1.55 1.52 1.57 1.58 1.59 1.57 1.56 1.60 1.63 1.65 1.66 1.66 1.67 1.65 1.64 1.56 1.49 1.48 1.49 1.50 1.51 1.49 1.50 1.51 1.53 1.56 1.59 1.60 1.63 1.67 1.69 1.65 1.62 1.61 1.62 1.61
0.53 0.56 0.42 0.49 0.45 0.50 0.56 0.59 0.61 0.62 0.63 0.67 0.69 0.71 0.73 0.77 0.78 0.78 0.82 0.85 0.87 0.87 0.84 0.86 0.86 0.88 0.92 0.92 0.93 0.93 0.88 0.88 0.94 0.96 0.97 0.98 1.03 1.06 1.11 1.18 1.27 1.35 1.45 1.49 1.53 1.57 1.57 1.60 1.61 1.64 1.65 1.65 1.70 1.72 1.70 1.70 1.72 1.75 1.74 1.76 1.78 1.79 1.73 1.67 1.61 1.62 1.56 1.53 1.48 1.44 1.43 1.40 1.40 1.40 1.43 1.46 1.49 1.48 1.50 1.55 1.62 1.62 1.64 1.72 1.74 1.70
0.50 0.43 0.51 0.49 0.42 0.42 0.44 0.52 0.59 0.50 0.49 0.58 0.63 0.69 0.71 0.75 0.78 0.80 0.84 0.85 0.87 0.86 0.86 0.86 0.84 0.88 0.93 0.96 0.97 0.96 0.89 0.87 0.87 0.93 0.97 1.00 1.04 1.06 1.09 1.18 1.25 1.31 1.37 1.47 1.53 1.53 1.55 1.60 1.62 1.65 1.69 1.73 1.78 1.78 1.77 1.77 1.80 1.84 1.87 1.90 1.87 1.80 1.65 1.62 1.57 1.52 1.49 1.48 1.41 1.38 1.36 1.36 1.36 1.37 1.37 1.36 1.35 1.35 1.39 1.46 1.52 1.57 1.60 1.62 1.67 1.71
0.47 0.49 0.49 0.43 0.42 0.42 0.53 0.59 0.63 0.62 0.60 0.62 0.65 0.69 0.72 0.74 0.76 0.78 0.82 0.86 0.88 0.88 0.86 0.86 0.85 0.85 0.89 0.93 0.97 0.96 0.91 0.88 0.87 0.89 0.90 0.94 1.01 1.05 1.08 1.15 1.17 1.23 1.31 1.41 1.47 1.48 1.49 1.54 1.59 1.61 1.64 1.70 1.74 1.73 1.75 1.77 1.81 1.84 1.82 1.90 1.91 1.78 1.64 1.64 1.61 1.49 1.43 1.43 1.39 1.38 1.36 1.34 1.30 1.31 1.33 1.33 1.32 1.31 1.30 1.33 1.41 1.48 1.56 1.62 1.65 1.67
Wind_Speed
26 26 27 27 25 25 25 25 25 22 19 21 23 24 23 23 24 23 22 20 19 19 19 21 21 21 20 19 18 18 19 20 19 18 17 17 17 17 17 17 17 18 17 17 18 20 21 22 22 22 23 24 24 23 24 24 25 24 24 23 23 22 22 22 21 21 20 19 19 18 17 16 15 14 14 13 13 12 11 10 10 9 9 8 8 7
28 29 29 27 25 24 24 24 25 25 23 21 21 24 23 24 24 23 22 21 20 20 19 20 21 21 21 20 19 19 20 20 20 20 19 19 18 17 18 18 18 17 16 16 17 19 21 22 23 23 23 24 25 25 25 25 25 25 25 24 24 23 23 23 22 22 21 20 19 18 18 17 16 15 14 14 13 13 12 11 10 10 9 9 8 8
30 31 29 26 24 23 24 25 26 26 27 24 22 22 23 22 23 24 24 23 21 21 20 20 21 21 21 21 20 21 21 21 21 22 22 21 20 18 18 18 18 17 16 17 18 19 21 22 23 23 23 25 25 25 25 25 26 26 25 25 24 24 24 23 23 22 22 21 20 19 18 17 16 15 15 14 14 13 13 12 11 10 9 9 9 8
31 30 28 25 25 26 26 27 27 27 27 27 24 23 22 22 22 23 23 23 23 23 21 21 22 22 22 21 21 23 23 22 22 23 23 22 21 21 20 18 18 18 18 18 19 19 20 21 23 23 24 25 25 25 26 26 26 26 26 26 25 25 24 24 23 23 22 22 21 20 19 18 17 16 16 15 14 14 13 12 12 11 10 10 9 9
31 27 25 27 28 29 28 28 28 27 26 28 28 25 23 22 23 22 21 22 23 24 23 22 22 23 23 23 22 22 23 23 22 23 22 22 22 21 20 19 19 19 19 19 19 19 20 21 22 24 24 25 26 26 26 26 26 26 26 27 26 26 25 25 24 24 23 23 22 21 20 19 18 17 16 16 15 14 14 13 13 12 11 10 10 9
32 27 25 28 30 31 31 29 30 29 26 27 29 29 26 23 23 23 22 22 22 23 23 23 23 23 24 26 25 22 23 23 22 23 24 23 22 21 20 20 20 20 20 20 20 20 20 21 22 23 24 25 27 27 27 27 27 26 26 27 27 26 26 26 25 25 24 24 23 22 21 20 19 18 18 17 16 15 15 14 13 13 12 11 10 9
32 29 28 29 30 31 32 31 30 30 27 26 27 29 28 26 24 24 24 23 23 23 22 22 24 22 21 25 26 24 24 25 24 24 25 24 23 22 21 21 21 20 20 20 20 20 20 21 21 23 24 25 27 27 27 27 27 27 26 26 27 26 26 26 26 26 25 24 24 23 22 21 20 19 19 18 17 16 15 15 14 13 13 12 11 10
32 31 31 32 30 30 31 31 31 30 28 26 24 27 29 29 27 26 25 25 24 23 23 24 24 23 23 24 25 24 25 26 26 25 25 25 24 24 23 22 22 22 21 20 21 21 20 21 23 23 24 25 26 27 27 27 27 28 27 27 27 26 26 27 27 27 26 25 25 24 23 22 21 20 19 19 18 17 16 16 15 14 13 13 12 11
31 33 33 33 32 31 30 30 29 31 30 25 23 25 27 28 29 27 26 26 24 23 26 26 25 24 24 24 24 25 26 26 26 26 26 25 25 25 24 23 23 22 22 22 22 22 22 22 23 24 23 24 25 26 27 27 27 28 27 27 27 27 26 27 27 27 27 26 25 25 24 22 22 21 20 19 19 18 17 17 16 15 14 13 13 12
30 31 32 33 34 33 31 29 28 31 31 26 24 24 25 27 28 27 27 26 25 26 28 27 26 25 24 24 25 26 27 26 25 25 26 26 26 26 25 25 23 22 22 22 23 23 23 24 24 23 23 24 25 26 27 27 27 28 28 28 28 27 26 27 27 27 27 27 26 25 24 24 23 22 21 20 19 19 18 18 17 16 15 14 13 13
32 31 31 32 34 33 31 30 29 31 30 27 26 25 23 25 26 26 27 26 26 29 30 29 27 26 25 25 27 27 26 25 24 24 25 26 27 27 26 25 24 23 22 23 23 23 24 24 23 23 24 25 25 26 27 27 28 28 28 28 28 28 27 27 27 27 27 27 26 26 25 25 24 23 22 21 20 20 19 19 18 17 16 15 14 13
34 34 32 31 32 31 31 31 30 30 30 29 28 27 24 24 24 25 25 26 28 29 28 29 28 27 27 25 25 26 26 26 26 26 26 26 27 28 27 26 25 24 23 23 23 23 23 23 23 23 24 25 25 26 27 28 28 28 29 29 29 28 28 27 27 27 27 27 26 26 26 25 25 24 23 22 21 21 21 20 19 18 17 16 15 14
34 36 34 31 31 32 32 32 31 30 31 31 30 29 27 24 23 24 25 26 28 26 24 26 27 28 29 26 25 26 26 27 28 27 27 27 27 28 28 27 26 25 24 24 23 23 23 23 24 24 25 25 26 26 27 28 28 28 29 30 29 29 29 28 27 28 27 27 27 26 26 25 24 24 24 23 22 22 21 21 20 19 18 17 16 15
33 34 35 35 32 32 33 32 31 31 32 33 32 31 30 26 24 25 25 25 26 25 23 24 25 28 28 25 27 30 28 28 28 28 28 28 28 28 28 28 27 26 26 25 24 24 24 25 25 25 26 26 26 26 26 27 28 28 29 30 30 30 30 29 28 28 28 28 28 27 26 25 24 24 24 24 23 23 22 21 21 20 19 18 17 16
33 33 34 36 33 31 33 34 33 31 31 33 32 31 31 30 27 25 24 25 24 22 23 24 24 25 24 21 23 27 30 31 30 30 29 28 29 29 29 29 28 27 27 26 25 26 26 26 26 26 27 27 27 27 27 27 27 28 29 30 31 30 30 30 30 29 28 28 28 28 27 26 25 25 25 24 24 23 23 22 22 21 20 19 18 16
32 31 30 33 33 31 32 32 32 32 32 32 32 32 32 32 29 26 24 25 23 22 23 26 26 24 21 19 19 21 26 30 32 32 31 30 29 29 28 29 28 28 27 26 26 27 28 27 27 27 27 27 27 28 28 27 27 27 28 30 31 31 31 31 31 30 29 29 28 28 27 26 26 25 25 25 24 23 23 23 22 22 21 20 19 17
29 31 29 30 33 33 31 30 31 32 31 30 33 35 32 30 29 27 25 24 24 24 24 25 28 25 22 22 23 22 23 26 30 32 33 32 30 29 29 29 28 28 27 27 28 29 29 28 28 28 28 27 28 28 28 28 27 27 27 29 30 31 31 31 31 31 30 29 29 28 28 27 27 26 26 25 25 24 23 23 23 22 22 21 20 19
26 30 30 31 33 33 31 31 32 33 31 29 32 34 30 28 29 29 26 24 25 26 23 23 27 26 23 21 22 24 24 25 27 30 31 32 31 30 30 29 29 28 28 28 29 30 30 30 29 29 29 29 29 29 29 28 28 27 28 29 30 31 31 31 32 31 31 30 29 29 29 28 27 27 26 25 25 24 23 23 23 23 22 22 21 20
26 28 30 32 34 32 32 33 33 34 35 32 30 31 30 30 30 30 28 26 26 26 23 23 25 26 24 21 19 22 25 25 26 27 29 30 30 30 30 29 29 29 27 27 29 30 31 31 31 30 30 30 29 29 29 29 28 28 28 29 30 31 32 32 32 32 31 31 30 29 29 29 28 27 26 26 25 25 24 24 23 23 23 23 22 21
25 27 29 30 32 32 32 34 35 34 35 35 32 31 32 31 30 31 30 27 26 25 23 23 24 25 24 22 21 22 23 25 25 26 27 29 29 30 29 29 28 28 27 27 28 30 31 32 32 32 32 31 30 29 29 29 29 29 29 29 30 31 32 32 33 32 32 32 30 29 29 29 29 28 27 26 25 25 25 24 24 24 24 23 23 22
25 27 28 29 30 33 33 35 35 33 32 34 34 33 33 32 29 30 31 30 28 26 24 23 24 24 21 20 22 23 23 24 25 25 26 27 29 30 29 28 28 28 28 28 28 29 32 33 33 33 33 31 30 29 29 29 29 29 29 29 30 31 32 33 33 33 33 32 31 30 30 29 29 29 28 27 26 26 25 25 25 24 24 23 23 23
25 26 28 29 31 33 33 32 33 32 30 31 32 33 33 33 31 30 30 31 31 29 26 24 24 23 20 17 19 22 22 23 25 25 26 27 28 29 29 28 28 28 29 29 28 29 31 33 33 33 33 32 30 30 30 30 29 29 29 30 30 31 32 33 33 33 33 33 32 31 30 30 29 29 28 27 27 26 26 25 25 25 24 24 24 23
25 26 28 30 32 34 34 33 32 33 33 32 32 32 32 32 32 32 30 29 31 31 28 26 26 24 21 19 18 19 19 21 22 24 25 27 28 28 28 28 28 28 29 29 29 29 30 32 33 33 33 33 32 31 31 30 30 30 30 30 30 31 32 33 33 33 33 33 33 32 31 30 29 29 29 28 28 27 27 26 26 25 25 25 24 24
24 26 27 28 30 33 35 34 32 33 34 33 33 33 32 32 31 31 29 27 29 31 29 27 27 24 22 20 19 18 18 18 20 22 23 25 26 27 28 28 28 28 28 29 28 28 29 31 32 32 33 33 32 32 32 31 30 30 30 30 30 31 32 33 33 33 34 34 33 33 32 31 30 29 29 29 28 28 27 27 26 26 26 25 25 24
23 25 26 26 27 30 33 33 32 32 33 32 33 33 33 32 31 31 30 27 28 31 30 28 26 23 20 19 20 20 19 18 19 21 22 22 23 24 24 25 27 28 28 29 29 28 28 29 31 32 32 33 32 32 32 32 31 30 30 30 30 31 31 32 32 33 34 34 34 34 33 32 31 30 29 29 29 28 28 27 26 26 26 26 25 25
24 25 26 27 27 29 31 31 31 31 32 32 32 33 33 32 31 31 30 29 29 30 31 30 26 22 20 19 19 20 20 18 19 20 21 22 23 23 23 23 25 26 28 29 29 29 28 29 30 32 32 33 33 33 32 32 32 31 31 31 31 30 31 31 32 33 33 34 35 34 33 33 32 31 30 29 29 29 28 28 27 26 26 26 26 25
25 26 28 28 29 29 29 29 29 30 31 32 32 33 33 33 32 31 31 31 28 28 30 29 25 22 20 20 19 19 19 19 19 19 20 21 22 22 23 24 25 26 28 29 29 29 28 29 29 31 32 33 34 34 33 32 33 32 31 31 31 30 30 31 31 32 33 33 34 34 34 33 32 31 30 30 29 29 28 28 27 27 26 26 26 25
24 27 29 30 31 32 31 31 31 31 32 32 32 32 33 33 33 33 33 31 28 27 29 27 25 24 21 19 19 18 18 19 19 18 18 19 20 21 22 24 25 26 28 29 29 29 29 29 29 30 32 34 35 34 33 33 33 33 32 32 31 31 30 30 31 31 32 33 33 33 33 33 32 32 31 30 29 29 28 28 28 27 27 26 26 26
23 26 28 29 31 32 33 32 33 33 33 33 33 33 33 33 33 34 35 34 31 30 28 24 24 23 20 19 20 19 19 20 19 19 19 19 20 20 21 23 25 26 28 29 30 30 30 31 30 30 31 34 35 35 33 32 32 33 33 32 32 31 31 30 30 31 31 32 32 32 32 32 32 32 31 31 30 29 29 28 28 27 27 27 26 26
21 24 26 28 29 32 33 33 33 34 34 34 34 34 34 34 33 34 34 34 34 33 30 27 25 22 20 20 21 21 20 21 21 20 19 19 19 19 20 22 25 27 28 29 30 30 31 32 32 31 31 33 35 35 34 33 32 33 33 33 32 32 31 30 29 30 31 31 31 31 31 32 32 32 32 31 31 30 30 29 28 28 27 27 26 26
20 21 23 25 27 30 32 33 34 35 35 35 35 34 33 33 32 31 31 32 33 33 32 31 28 24 22 21 21 21 21 21 21 21 20 19 19 19 20 22 24 27 29 30 31 31 32 32 32 31 32 33 34 35 34 33 33 33 33 33 33 32 31 30 30 30 31 31 31 31 31 32 31 31 32 32 31 31 30 29 28 28 28 27 27 26
19 20 21 23 25 27 29 30 32 33 34 35 35 34 32 30 29 28 28 29 30 31 30 29 28 26 24 23 23 22 21 21 21 21 20 20 20 20 21 22 23 26 29 31 32 32 33 34 33 32 33 33 35 35 34 33 33 33 33 33 33 32 32 31 30 30 30 30 30 31 31 31 31 31 31 31 31 31 31 30 29 28 28 27 27 26
20 20 21 22 24 25 26 27 29 31 33 35 36 35 32 29 28 27 27 27 28 29 30 29 27 25 25 25 25 23 22 21 20 20 20 20 20 20 21 22 23 24 27 31 32 33 35 35 34 34 34 34 35 36 34 33 33 33 33 33 33 33 32 32 31 30 30 30 30 30 30 30 30 31 31 31 31 31 31 30 29 29 28 27 27 27
21 21 21 21 22 23 24 25 27 31 33 33 33 33 32 29 28 27 25 25 26 26 28 28 27 26 26 26 25 24 24 22 20 19 19 18 19 20 20 21 22 23 25 29 31 33 35 36 35 35 34 34 35 35 34 33 33 33 33 33 33 33 32 32 31 30 30 30 30 30 30 30 30 30 30 30 31 31 31 30 29 29 28 27 27 27
22 21 21 21 22 22 22 24 28 31 33 32 30 31 31 28 28 27 25 23 23 24 25 26 26 26 26 26 25 25 25 24 21 18 17 17 17 18 18 19 20 21 22 26 30 31 33 36 36 35 35 34 34 33 32 32 32 33 33 33 33 32 32 31 31 30 30 30 30 30 30 29 29 29 29 30 30 30 30 30 29 29 28 27 27 27
23 21 20 21 22 22 23 26 27 27 31 33 30 29 29 27 27 28 26 23 22 22 24 25 25 25 26 26 25 24 24 24 22 19 17 16 16 16 17 17 18 19 21 24 28 29 32 35 36 35 35 34 34 33 32 32 33 33 33 34 33 32 32 31 30 30 30 30 30 30 29 29 28 28 28 29 29 29 30 29 29 29 28 28 27 27
23 21 21 21 22 23 24 26 27 25 28 32 30 29 30 29 28 28 27 24 23 22 23 24 24 24 25 24 23 23 23 24 22 20 17 16 15 16 15 15 16 16 18 22 26 27 30 34 36 35 34 33 33 32 32 32 33 33 33 34 33 32 32 31 31 30 30 30 30 29 29 28 28 27 27 27 28 28 29 29 28 28 28 28 27 27
22 21 21 20 21 23 25 25 27 26 27 29 30 29 31 30 29 29 28 25 23 22 21 23 22 22 23 23 21 21 23 23 22 20 18 17 16 16 15 14 14 14 16 20 24 26 30 33 35 34 33 32 32 31 32 32 32 32 33 34 33 32 32 31 31 31 30 30 30 29 28 28 27 27 26 26 27 27 27 27 27 27 27 27 27 27
21 20 20 20 20 22 24 25 26 26 25 27 29 30 30 31 31 30 28 24 23 22 21 22 22 21 21 21 20 20 22 22 22 21 20 19 18 17 15 13 12 12 14 18 21 26 30 33 34 34 33 32 32 31 31 32 32 32 33 33 32 32 31 31 31 30 30 30 29 28 28 27 27 27 26 26 26 27 27 27 27 26 26 26 26 26
20 20 21 22 21 21 24 25 25 25 24 25 28 29 29 31 32 31 28 24 23 22 21 21 22 21 20 21 21 21 21 22 22 22 21 20 19 18 15 12 11 12 13 16 20 25 29 32 33 33 33 32 32 31 32 32 32 32 32 32 32 32 31 30 30 29 29 29 29 28 28 27 27 26 26 26 26 26 26 26 26 26 26 26 26 25
18 18 19 21 21 21 23 24 23 24 23 23 26 27 27 30 32 31 28 25 23 23 22 22 22 21 21 20 21 21 22 21 22 21 20 19 19 17 13 11 11 11 12 15 18 23 28 31 32 32 32 31 31 31 32 31 31 32 31 31 31 31 30 29 29 28 28 28 28 28 27 27 27 27 26 26 26 26 26 26 26 26 26 26 26 25
16 16 16 18 20 20 22 22 22 23 22 21 24 26 27 30 31 29 27 25 24 23 23 22 22 22 21 21 21 21 22 21 20 19 18 18 17 15 12 10 11 11 12 14 17 21 25 29 30 31 31 30 30 31 31 31 31 31 31 31 30 30 29 28 28 27 27 27 27 27 27 27 27 26 26 26 26 26 26 25 25 25 25 25 25 25
11 12 13 15 17 18 20 21 20 21 20 20 22 26 27 29 29 28 26 24 23 23 23 23 23 23 22 21 21 21 21 21 19 18 17 16 16 14 11 10 10 11 12 13 16 19 23 26 28 28 29 30 30 31 31 31 31 30 30 30 29 28 28 27 27 27 26 26 26 26 26 26 27 26 26 26 26 26 25 25 25 25 25 25 25 25
8 9 11 12 13 15 17 18 18 18 19 20 23 25 27 28 28 27 25 23 22 22 22 23 24 23 22 22 22 22 22 21 19 18 16 16 14 13 12 11 11 11 12 13 15 18 21 24 26 26 27 28 29 30 30 30 30 30 30 29 28 28 27 27 27 26 25 25 25 25 25 25 26 26 26 26 26 26 26 25 25 25 25 24 24 24
5 6 9 10 11 13 15 15 15 17 17 20 24 26 26 27 27 25 24 23 22 21 22 23 24 23 23 22 22 22 23 22 20 18 17 16 15 13 12 12 12 12 12 13 14 17 20 22 24 25 26 27 28 28 29 29 30 29 29 28 28 28 27 27 27 26 25 25 25 24 24 25 25 26 26 26 26 26 26 25 25 24 24 24 24 24
3 3 6 8 10 13 15 13 13 15 16 19 24 26 25 25 25 24 23 23 22 21 22 23 24 24 24 23 23 23 23 23 22 20 18 17 16 14 13 13 13 12 13 13 14 16 18 21 23 24 25 26 26 27 28 28 29 28 28 28 28 28 27 27 27 26 26 25 25 25 25 24 24 25 25 25 25 25 25 25 25 25 24 24 24 25
2 2 4 6 8 12 14 12 10 13 17 19 20 21 21 22 23 24 24 23 22 22 22 23 24 24 24 24 23 23 23 23 23 21 20 18 17 15 14 14 13 13 14 14 14 15 18 20 22 23 24 25 25 26 26 27 27 27 28 28 28 28 27 27 27 26 26 25 25 25 25 25 24 24 24 24 25 25 25 25 24 24 24 25 25 25
1 0 1 4 6 9 12 12 10 13 18 20 18 19 20 21 21 23 24 23 23 22 23 24 24 24 24 24 24 24 23 23 23 22 21 20 19 17 15 15 14 14 14 15 15 15 17 19 20 21 23 23 24 25 25 25 26 26 26 27 27 27 27 27 26 25 25 25 25 25 25 25 25 24 24 24 24 24 24 24 24 24 24 24 25 25
2 1 1 2 5 8 11 11 9 12 18 20 18 18 20 20 21 23 23 23 23 23 23 24 25 25 25 25 25 25 24 23 23 22 22 21 20 18 17 16 15 15 15 15 16 16 17 18 19 20 21 22 23 24 24 24 24 24 25 25 26 26 26 26 25 25 24 23 23 24 24 25 24 24 23 23 23 23 23 24 24 24 24 24 24 24
3 2 2 1 4 6 8 9 9 12 17 20 19 19 20 20 22 23 23 22 23 23 23 24 25 26 26 26 26 26 25 24 23 23 23 22 21 19 18 17 16 16 16 16 17 17 17 18 19 20 21 22 22 23 23 23 23 23 24 24 24 25 26 25 25 25 25 24 23 24 24 25 24 24 23 23 23 23 22 22 22 22 23 23 22 22
6 4 4 2 3 6 7 8 10 12 16 19 20 20 20 21 22 24 24 23 22 22 23 24 25 26 26 26 26 26 26 25 24 24 24 23 22 20 19 18 18 17 17 17 18 18 18 19 20 20 21 22 22 23 23 23 23 23 23 23 23 24 25 24 23 24 25 25 25 24 24 24 24 24 24 24 24 23 22 22 21 21 21 22 22 22
Wind_Direction
219 222 223 223 223 222 221 222 223 226 227 225 223 224 225 224 225 223 221 223 224 224 225 225 227 228 227 222 216 213 211 209 208 206 207 207 206 204 200 199 199 201 201 198 199 201 201 201 201 201 201 200 199 198 198 197 197 196 195 195 195 195 195 195 195 194 192 191 191 190 189 189 189 189 187 184 181 178 176 174 169 166 164 159 156 153
221 225 225 223 223 222 221 222 223 225 226 226 224 224 224 224 225 225 224 225 225 226 227 226 228 228 228 226 218 213 214 212 209 207 207 207 206 204 201 200 200 200 199 197 198 201 201 202 201 201 202 202 201 200 199 199 199 198 198 197 197 196 196 197 197 196 194 194 193 192 191 191 191 191 190 187 184 182 180 178 175 172 170 167 163 159
225 227 226 223 222 222 223 223 223 224 225 226 224 224 224 222 224 227 226 226 225 227 229 228 229 229 228 227 220 214 215 214 211 208 207 206 205 203 202 200 199 199 197 198 199 200 202 202 201 201 202 203 203 202 201 201 200 200 199 199 198 198 198 198 198 197 196 196 196 195 194 195 194 193 193 190 187 185 183 182 181 179 176 173 171 166
227 229 226 222 221 221 223 222 222 224 226 225 224 224 223 220 222 225 224 225 226 228 230 231 232 231 228 227 222 216 216 216 213 211 209 207 205 204 204 202 199 198 197 198 198 199 202 203 203 203 203 203 203 204 202 202 201 201 201 200 200 200 199 199 199 198 197 197 198 198 198 198 197 196 195 194 192 189 188 187 186 185 182 179 177 173
229 229 223 221 221 221 222 222 222 224 226 226 225 224 224 221 221 224 225 227 229 228 229 231 235 234 227 227 225 219 217 218 216 214 213 211 209 208 209 207 203 200 199 199 199 199 201 203 204 204 203 203 203 204 203 202 202 202 202 201 201 201 201 200 200 199 199 198 199 199 199 199 198 198 197 196 195 193 191 191 190 190 188 185 182 178
231 228 220 219 222 222 223 223 221 223 226 226 225 224 224 224 223 225 228 231 231 229 225 227 233 234 226 226 227 220 217 219 218 216 214 213 211 210 211 209 206 204 203 202 201 200 201 203 204 205 205 204 204 204 204 203 202 202 203 202 202 202 202 202 201 201 200 199 200 200 199 199 198 197 197 197 197 196 194 193 193 193 191 190 188 183
230 226 221 221 222 221 223 224 221 221 225 228 225 223 223 225 225 226 228 229 230 229 226 225 230 233 226 224 225 222 218 218 218 217 216 213 211 211 211 210 207 205 205 204 202 202 201 202 203 205 206 206 205 204 204 204 203 203 203 203 202 203 203 202 202 202 202 201 201 201 201 200 200 199 200 201 200 198 197 196 196 196 195 193 193 190
227 224 222 222 222 222 223 224 221 219 223 228 224 220 221 224 226 227 228 230 231 233 232 229 229 234 231 224 223 222 220 219 218 217 216 214 212 211 211 211 208 206 205 204 202 202 202 202 204 206 207 206 205 204 204 204 204 203 203 203 203 203 203 203 203 204 204 202 202 202 203 202 203 203 203 204 203 201 200 200 199 200 198 196 196 194
224 224 223 222 224 225 224 224 221 219 223 226 221 220 221 223 226 227 229 230 232 235 234 228 226 232 234 226 221 222 222 221 219 217 216 214 212 211 212 211 209 207 206 206 205 205 205 205 206 207 207 206 205 205 205 205 205 204 203 204 204 203 204 204 204 204 205 204 203 203 204 204 205 205 206 206 204 203 202 202 202 202 202 199 198 197
226 226 224 223 226 226 224 224 222 220 223 223 219 221 222 223 225 226 228 230 232 233 232 227 223 230 234 227 221 222 222 221 219 218 217 215 213 212 212 212 210 208 207 207 208 207 207 208 209 208 207 207 206 206 206 205 205 205 204 204 205 204 204 205 205 204 205 205 205 204 205 205 206 206 206 206 205 205 205 204 204 205 204 203 201 200
230 231 227 225 227 226 223 223 222 221 221 220 219 220 222 222 223 224 225 227 230 232 231 228 223 227 235 229 222 222 222 219 217 217 217 215 214 214 214 214 211 209 208 207 208 208 208 209 209 208 207 208 207 207 207 206 206 206 205 205 205 205 205 205 205 204 204 205 205 206 206 206 207 207 207 207 207 207 207 207 207 207 207 206 204 204
229 229 226 225 226 223 220 221 221 220 219 218 218 218 220 221 221 222 222 221 228 232 231 228 225 227 232 229 223 223 220 218 218 217 215 214 215 215 215 215 213 210 209 208 208 208 207 207 207 208 209 208 208 207 207 207 207 206 206 206 206 206 205 205 205 205 205 205 205 206 207 207 207 207 208 208 208 209 209 209 208 208 208 208 207 207
227 226 224 225 225 220 218 219 219 218 218 217 216 215 217 218 217 220 220 220 227 231 229 225 223 227 232 230 226 224 220 219 220 218 215 213 214 214 214 214 213 212 210 209 209 209 207 207 208 209 209 208 208 207 207 207 208 208 207 207 207 206 206 206 206 205 205 205 206 206 207 207 207 207 208 209 209 210 210 210 210 209 210 210 209 209
226 225 223 223 223 220 217 216 216 216 215 215 214 214 215 215 216 218 220 223 227 229 228 223 223 231 234 231 228 226 223 221 221 220 217 214 213 213 213 214 214 213 212 210 209 209 208 209 210 210 210 209 208 208 208 207 208 208 208 207 207 207 207 207 206 206 206 206 207 207 207 207 207 207 208 209 210 211 211 211 211 211 211 212 212 212
225 224 221 219 221 222 218 217 217 216 215 216 215 216 218 218 219 220 221 224 227 229 226 219 222 229 228 225 226 225 224 222 221 221 219 216 214 213 213 214 214 214 213 211 209 209 210 210 210 210 210 210 209 208 208 208 208 208 208 207 208 208 207 207 207 206 206 207 208 208 208 207 207 207 208 210 211 211 212 212 212 213 213 214 215 215
227 225 222 220 222 222 220 220 218 215 216 218 216 217 220 220 221 224 226 228 229 232 228 221 224 229 226 228 229 225 224 222 221 220 219 218 216 214 215 214 214 215 214 212 210 209 210 210 209 209 210 211 210 209 208 208 207 207 207 207 208 209 208 208 208 207 208 208 209 209 208 207 208 208 209 210 211 212 212 213 213 214 214 215 216 216
229 225 223 224 223 218 219 222 219 216 217 215 215 218 219 219 220 224 228 227 228 232 229 224 228 232 233 237 232 224 223 223 221 220 219 218 215 213 215 215 214 215 215 214 212 211 211 210 209 209 210 210 210 209 208 208 207 207 207 207 208 209 210 209 209 208 209 209 209 209 209 208 209 209 210 211 212 212 213 214 215 215 216 216 217 218
231 229 226 224 220 218 221 222 221 220 218 215 216 217 216 217 220 223 225 223 224 228 226 223 229 231 229 230 226 219 220 222 221 220 220 218 214 212 214 215 215 216 216 215 214 213 211 210 210 209 209 210 210 210 209 207 207 208 208 208 208 209 210 210 210 209 209 209 210 210 210 209 210 210 211 211 212 212 212 213 214 215 216 217 218 218
233 232 226 220 220 222 222 220 219 220 219 219 219 215 213 216 218 218 221 222 223 226 226 225 228 229 225 223 222 218 218 221 221 219 219 217 214 214 214 214 215 216 216 215 214 213 211 211 211 210 209 210 210 211 210 209 208 209 209 210 210 210 211 211 211 210 210 210 210 211 211 210 211 211 212 212 212 212 212 212 214 215 216 217 217 218
232 230 225 219 220 222 220 217 217 216 216 219 219 216 216 219 219 218 220 223 224 226 228 226 227 228 226 223 225 224 219 219 220 218 218 216 213 213 214 214 215 215 216 215 214 214 212 212 212 211 210 210 210 210 210 209 209 209 209 210 211 211 211 212 212 211 210 210 211 211 212 211 212 212 212 212 212 212 213 213 214 215 216 217 218 219
230 227 226 222 221 221 218 215 215 215 214 215 216 216 216 217 218 220 222 222 224 227 228 227 228 229 225 220 225 227 221 218 219 218 217 215 213 213 214 215 215 216 216 216 215 214 213 213 212 212 212 210 209 210 210 210 209 209 210 210 211 211 212 212 212 212 211 211 211 211 212 212 212 213 213 214 214 214 214 214 215 215 216 216 218 219
228 226 227 226 222 220 217 215 214 215 215 214 215 216 215 216 216 219 222 221 222 226 227 228 231 229 221 214 220 225 221 217 216 216 216 215 213 213 214 215 216 216 217 216 215 214 213 213 212 211 211 209 209 210 211 211 210 209 210 211 211 211 212 212 212 212 212 211 211 212 212 212 213 214 214 214 215 215 215 216 216 216 216 217 218 219
229 227 227 227 224 223 222 220 218 217 217 216 217 217 217 218 217 218 221 219 219 224 226 229 233 230 221 216 218 222 222 219 216 214 215 215 214 214 214 215 216 217 218 217 215 214 213 213 213 211 209 209 209 210 211 211 210 210 210 211 211 211 212 213 213 213 212 211 212 212 212 213 214 214 214 215 215 216 216 217 217 217 217 217 219 220
230 227 226 226 225 224 223 221 217 216 215 214 216 216 217 218 219 220 223 221 220 222 222 226 231 228 222 219 220 222 221 220 219 217 216 216 216 216 216 216 216 217 217 217 216 214 212 212 211 210 209 209 210 211 212 212 211 211 211 211 212 212 212 213 213 213 212 212 212 212 213 213 214 214 214 215 216 217 217 217 218 218 218 218 219 220
229 225 223 223 221 218 216 215 213 213 213 214 215 215 216 219 222 223 223 222 223 221 220 224 228 226 221 219 221 222 220 217 217 217 217 218 218 218 218 218 218 218 217 216 216 214 212 210 210 210 210 210 210 212 213 213 212 211 211 211 212 213 213 212 213 214 213 212 212 213 213 214 215 215 215 216 217 217 217 218 218 219 219 219 220 221
229 225 222 220 217 213 211 211 211 212 213 214 214 215 216 218 220 222 220 221 222 220 220 224 226 224 221 219 219 219 218 216 212 210 213 216 218 219 220 220 220 220 219 217 217 216 214 212 212 211 211 211 210 211 213 214 213 212 211 211 212 213 213 213 213 214 213 213 213 214 214 214 215 216 216 216 217 217 218 218 218 219 219 220 221 223
228 226 224 223 221 219 216 215 215 215 215 215 215 216 216 216 218 219 218 219 221 220 220 222 223 223 219 216 216 215 215 216 212 208 210 214 217 219 220 220 221 220 219 219 218 217 216 215 213 212 211 211 210 210 212 213 213 212 211 211 212 212 213 213 213 213 214 214 214 214 215 215 216 216 217 217 217 218 218 218 219 219 220 221 222 223
229 227 226 226 225 224 224 223 222 220 219 218 219 218 217 217 219 219 218 220 221 221 221 220 219 221 218 216 218 219 217 219 218 215 215 218 221 224 224 225 224 221 219 219 218 218 217 216 214 212 212 211 210 210 211 212 212 212 212 211 211 212 213 213 213 213 213 213 214 215 215 215 216 217 217 218 218 219 219 219 219 220 220 221 222 223
231 229 227 228 228 226 225 225 223 221 220 219 219 220 220 220 220 220 221 222 222 222 223 221 219 220 221 223 226 225 222 222 224 223 222 223 227 229 231 231 229 224 221 219 218 217 217 215 214 212 210 210 209 209 210 211 211 211 211 211 211 211 212 213 213 213 213 213 214 215 215 215 216 217 218 218 219 220 220 220 220 221 221 222 222 224
231 230 228 229 230 227 225 223 221 221 221 220 219 220 220 221 221 222 222 222 222 223 224 226 225 220 219 225 228 227 224 223 223 224 223 224 228 232 234 234 232 229 224 220 217 217 217 216 214 212 209 208 208 209 209 210 211 211 211 211 211 211 212 213 213 213 213 213 214 214 215 215 216 217 218 219 220 221 221 222 222 222 222 222 223 224
230 230 229 228 228 226 223 222 221 219 219 219 218 218 218 218 218 220 221 221 222 223 223 226 226 221 219 224 226 226 224 222 222 224 225 226 230 234 235 234 232 231 229 225 221 219 217 216 214 211 208 207 207 208 209 211 211 211 211 211 211 211 211 212 213 212 212 213 214 214 215 215 217 218 219 220 221 222 222 223 223 223 223 223 224 224
230 231 230 227 226 224 219 218 218 216 216 218 217 214 212 213 213 215 216 218 220 222 221 222 222 219 221 226 226 224 223 222 223 227 229 231 234 237 238 236 232 231 231 229 226 220 216 215 213 210 207 207 207 208 210 211 211 211 211 211 211 210 211 212 212 212 212 212 213 214 215 216 217 218 219 220 221 222 223 223 224 224 223 223 224 224
231 231 229 224 224 221 215 214 214 214 215 216 213 209 208 208 209 210 213 217 220 221 219 218 218 220 224 227 226 224 223 223 224 227 231 234 236 238 240 239 236 235 235 232 228 222 216 214 212 209 207 207 207 208 210 211 211 211 211 210 210 210 210 212 212 212 212 212 213 213 214 215 217 218 219 220 220 221 222 223 223 223 223 224 224 225
230 229 226 222 220 218 215 215 214 213 212 210 208 207 207 206 206 206 210 215 218 219 219 218 219 223 225 226 226 226 226 224 223 226 230 234 236 238 240 242 242 243 240 233 228 222 217 213 212 209 207 207 207 207 209 210 210 210 209 208 209 209 209 211 212 212 213 213 213 213 213 215 216 218 219 219 220 220 221 222 222 223 223 224 225 225
227 226 224 220 217 218 218 214 212 211 208 204 203 205 205 205 204 203 205 212 215 218 220 221 222 225 227 227 228 228 227 223 221 224 229 234 237 239 242 245 247 248 242 232 225 221 215 211 210 207 205 204 204 204 207 208 209 208 207 207 208 208 209 210 211 213 213 214 214 213 213 215 216 218 219 220 220 220 220 221 221 222 223 224 225 226
225 224 221 218 216 215 213 210 209 208 203 199 201 204 205 205 205 203 204 209 213 215 218 220 222 225 228 228 228 227 226 223 219 221 229 237 242 245 247 249 250 250 242 229 222 218 213 208 207 206 204 202 202 204 207 208 208 207 207 207 207 208 208 209 211 213 213 214 214 213 213 215 216 217 219 219 220 220 220 220 220 221 223 224 226 227
222 220 218 218 215 212 210 210 210 209 204 200 201 204 205 206 207 206 205 207 210 214 217 218 221 224 226 227 228 228 225 220 218 222 232 242 247 250 252 251 250 248 238 225 218 213 207 204 203 202 200 200 201 204 207 207 207 207 206 206 207 207 208 209 211 212 213 213 213 213 213 214 215 216 217 217 218 218 218 219 220 221 222 224 226 227
217 216 214 215 214 210 210 210 209 208 206 203 204 206 207 208 209 208 206 207 210 214 217 218 219 222 224 225 228 228 222 216 216 223 236 247 250 250 252 251 247 241 228 218 213 207 201 199 199 199 199 200 202 204 206 206 205 205 205 205 206 207 207 209 211 212 212 212 212 212 212 213 213 214 215 215 216 216 217 218 219 221 222 223 225 226
211 212 210 213 213 209 207 207 206 207 205 205 208 210 209 210 209 208 207 208 210 213 217 218 218 219 221 222 224 221 215 213 217 225 239 250 248 245 246 244 240 232 219 212 209 204 199 198 198 199 200 201 202 203 203 203 203 203 204 205 206 206 207 209 211 212 212 212 212 212 212 213 214 214 215 215 215 216 217 218 219 220 221 222 224 225
204 206 207 212 213 209 206 206 207 207 206 207 210 211 211 210 208 207 207 209 210 211 213 216 217 218 220 220 219 213 210 213 220 229 241 247 243 239 237 233 231 224 213 208 206 202 198 198 198 199 200 202 203 203 201 200 201 202 203 204 206 206 207 209 210 211 212 212 212 212 212 213 214 215 215 216 217 218 218 219 220 221 221 222 224 225
195 199 205 211 211 208 206 205 206 206 206 209 211 212 212 209 205 205 207 209 211 212 211 211 215 217 218 217 214 211 211 216 222 230 238 240 237 235 229 222 221 215 206 204 203 200 198 198 198 199 200 201 202 201 199 199 200 201 202 204 205 206 207 208 209 210 211 212 213 213 213 214 215 215 216 217 218 219 220 221 221 222 222 224 225 226
189 196 204 208 208 206 204 203 204 203 204 209 212 211 207 203 202 203 206 208 211 212 210 210 212 215 216 215 213 212 214 218 222 228 232 232 232 230 223 216 214 208 201 200 199 197 196 196 197 198 199 200 200 199 199 199 200 201 202 204 205 206 207 207 208 209 210 211 212 213 214 214 215 216 217 218 218 219 221 221 222 223 224 225 227 228
187 197 201 201 201 201 199 198 200 201 203 209 209 204 200 199 200 202 205 208 211 211 211 210 211 213 214 214 214 214 216 219 222 224 226 227 227 225 220 215 210 202 197 196 196 196 195 195 196 198 199 199 198 198 199 200 201 202 203 204 205 205 206 206 207 208 209 211 212 213 214 214 215 216 218 218 219 220 221 222 223 224 225 226 227 229
178 197 200 196 195 196 194 193 196 201 205 206 202 197 195 196 198 200 204 209 212 212 212 211 211 213 214 214 216 217 216 219 222 223 223 224 224 222 220 215 207 200 195 194 196 196 195 195 196 197 198 197 197 199 200 201 201 202 203 204 204 205 205 206 206 207 209 210 211 213 214 215 216 217 218 219 220 221 223 223 224 225 226 227 228 230
163 195 203 201 198 193 188 189 198 205 208 204 197 193 192 195 198 200 204 209 213 215 214 212 212 214 214 214 216 217 216 218 221 221 221 221 221 220 218 212 206 202 196 193 194 195 194 193 194 195 195 196 197 199 201 202 201 202 203 204 204 205 205 205 206 207 208 210 211 212 213 215 216 217 219 220 221 222 224 225 226 227 228 229 230 231
138 175 196 203 202 195 189 189 201 210 209 201 194 191 192 196 200 204 207 211 216 218 217 214 213 213 213 213 214 215 216 219 221 220 219 219 218 216 214 210 207 203 198 194 193 193 192 191 191 191 192 194 197 199 200 201 201 201 202 203 204 205 205 205 206 208 209 211 211 212 213 214 216 218 220 221 222 223 225 226 228 229 230 231 232 233
116 152 184 198 202 199 194 192 204 213 206 195 190 193 198 201 204 206 209 214 219 220 219 217 214 212 212 212 212 214 216 217 219 219 217 216 217 215 212 210 208 204 200 197 195 192 190 188 188 189 190 192 196 198 198 199 200 200 201 202 203 204 205 206 208 210 211 213 213 213 213 214 216 218 219 220 222 224 225 227 229 230 231 232 233 235
29 212 199 205 202 200 197 199 214 219 206 196 194 200 204 206 208 209 210 214 219 221 220 218 215 213 212 210 210 212 215 215 216 217 216 215 215 214 211 210 209 206 203 199 197 194 190 187 188 188 188 190 193 195 195 196 197 198 199 200 202 203 204 206 208 209 210 211 212 213 213 215 216 218 219 221 222 224 226 227 229 231 232 233 234 236
338 316 304 232 207 200 199 204 219 216 204 201 205 208 208 210 213 212 213 216 220 221 220 218 216 213 212 210 209 211 213 214 213 214 215 214 213 213 211 211 210 208 205 202 200 197 194 192 191 190 189 190 193 193 194 194 196 197 198 199 201 202 204 206 208 208 209 210 212 213 214 215 217 219 220 222 223 225 228 229 230 232 233 234 235 236
4 348 334 275 210 206 208 214 220 213 206 208 215 216 215 215 215 214 215 217 220 221 221 219 217 215 213 211 210 210 213 214 214 214 214 213 212 213 213 212 212 210 208 205 204 201 199 199 198 195 194 195 195 195 195 195 196 198 199 200 202 204 205 208 211 211 212 213 214 215 215 217 219 220 221 223 224 225 227 229 230 232 233 233 234 236
9 349 337 322 238 229 230 228 225 219 214 214 216 217 218 217 216 216 217 218 219 221 221 219 219 217 216 214 211 210 212 214 215 215 214 213 213 214 214 214 214 213 211 208 206 205 205 205 204 201 199 199 199 198 197 197 199 201 203 204 207 208 208 210 213 213 214 215 216 217 218 219 221 223 225 226 226 225 226 227 229 232 233 233 234 235